| time (UTC) | temp C | wind direction | speed KPH | gust KPH | rain 1hr cm | rain 24hr cm | rain mn cm | humidity % | barometer mb |
| 20260507015403 | 8 | 21 | 0.0 | 1.6 | 0.00 | 0.00 | 0.00 | 86 | 1014.0 |
| 20260507014503 | 8 | 0 | 0.0 | 0.0 | 0.00 | 0.00 | 0.00 | 86 | 1014.0 |
| 20260507013605 | 8 | 0 | 0.0 | 0.0 | 0.00 | 0.00 | 0.00 | 86 | 1013.9 |
| 20260507012705 | 8 | 21 | 0.0 | 1.6 | 0.00 | 0.00 | 0.00 | 85 | 1013.9 |
| 20260507011803 | 8 | 0 | 0.0 | 0.0 | 0.00 | 0.00 | 0.00 | 84 | 1013.9 |
| 20260507010003 | 8 | 0 | 0.0 | 0.0 | 0.00 | 0.00 | 0.00 | 83 | 1013.9 |
| 20260507005405 | 8 | 0 | 0.0 | 0.0 | 0.00 | 0.00 | 0.00 | 83 | 1013.9 |
| 20260507004504 | 9 | 21 | 0.0 | 1.6 | 0.00 | 0.00 | 0.00 | 83 | 1013.8 |
| 20260507003814 | 9 | 21 | 0.0 | 1.6 | 0.00 | 0.00 | 0.00 | 82 | 1013.9 |
| 20260507002705 | 9 | 21 | 0.0 | 1.6 | 0.00 | 0.00 | 0.00 | 82 | 1013.9 |
| 20260507001805 | 9 | 21 | 0.0 | 3.2 | 0.00 | 0.00 | 0.00 | 82 | 1013.9 |
| 20260507000905 | 10 | 21 | 0.0 | 3.2 | 0.00 | 0.00 | 0.00 | 81 | 1013.9 |
| 20260507000214 | 10 | 21 | 0.0 | 3.2 | 0.00 | 0.00 | 0.00 | 81 | 1013.9 |
| 20260506235405 | 10 | 22 | 0.0 | 3.2 | 0.00 | 0.00 | 0.00 | 80 | 1013.8 |
| 20260506234723 | 10 | 22 | 0.0 | 3.2 | 0.00 | 0.00 | 0.00 | 80 | 1013.8 |
| 20260506233606 | 10 | 22 | 0.0 | 3.2 | 0.00 | 0.00 | 0.00 | 79 | 1013.7 |
| 20260506232705 | 10 | 22 | 0.0 | 3.2 | 0.00 | 0.00 | 0.00 | 79 | 1013.7 |
| 20260506231803 | 10 | 22 | 0.0 | 3.2 | 0.00 | 0.00 | 0.00 | 79 | 1013.7 |
| 20260506231117 | 10 | 22 | 0.0 | 3.2 | 0.00 | 0.00 | 0.00 | 78 | 1013.7 |
| 20260506230003 | 10 | 20 | 0.0 | 4.8 | 0.00 | 0.00 | 0.00 | 78 | 1013.8 |
| 20260506225404 | 10 | 21 | 0.0 | 6.4 | 0.00 | 0.00 | 0.00 | 78 | 1013.8 |
| 20260506224505 | 10 | 22 | 0.0 | 3.2 | 0.00 | 0.00 | 0.00 | 77 | 1013.7 |
| 20260506223816 | 10 | 22 | 0.0 | 3.2 | 0.00 | 0.00 | 0.00 | 77 | 1013.7 |
| 20260506222913 | 10 | 22 | 0.0 | 3.2 | 0.00 | 0.00 | 0.00 | 76 | 1013.6 |
| 20260506222015 | 10 | 25 | 0.0 | 4.8 | 0.00 | 0.00 | 0.00 | 75 | 1013.5 |
| 20260506220903 | 10 | 18 | 0.0 | 4.8 | 0.00 | 0.00 | 0.00 | 74 | 1013.5 |
| 20260506220005 | 10 | 17 | 0.0 | 3.2 | 0.00 | 0.00 | 0.00 | 74 | 1013.5 |
| 20260506215403 | 10 | 17 | 0.0 | 3.2 | 0.00 | 0.00 | 0.00 | 73 | 1013.4 |
| 20260506214506 | 11 | 20 | 0.0 | 6.4 | 0.00 | 0.00 | 0.00 | 72 | 1013.5 |
| 20260506213603 | 11 | 12 | 1.6 | 8.0 | 0.00 | 0.00 | 0.00 | 72 | 1013.5 |
| 20260506212703 | 11 | 332 | 1.6 | 8.0 | 0.00 | 0.00 | 0.00 | 71 | 1013.5 |
| 20260506211803 | 11 | 15 | 1.6 | 6.4 | 0.00 | 0.00 | 0.00 | 70 | 1013.5 |
| 20260506211118 | 11 | 28 | 1.6 | 6.4 | 0.00 | 0.00 | 0.00 | 70 | 1013.5 |
| 20260506210003 | 11 | 11 | 1.6 | 4.8 | 0.00 | 0.00 | 0.00 | 69 | 1013.3 |
| 20260506205403 | 11 | 3 | 1.6 | 8.0 | 0.00 | 0.00 | 0.00 | 69 | 1013.4 |
| 20260506204504 | 11 | 25 | 1.6 | 8.0 | 0.00 | 0.00 | 0.00 | 69 | 1013.3 |
| 20260506203603 | 11 | 359 | 1.6 | 6.4 | 0.00 | 0.00 | 0.00 | 69 | 1013.3 |
| 20260506202705 | 11 | 358 | 1.6 | 8.0 | 0.00 | 0.00 | 0.00 | 68 | 1013.2 |
| 20260506201805 | 11 | 356 | 1.6 | 6.4 | 0.00 | 0.00 | 0.00 | 67 | 1013.1 |
| 20260506200903 | 11 | 352 | 1.6 | 9.7 | 0.00 | 0.00 | 0.00 | 66 | 1013.1 |
| 20260506200004 | 11 | 360 | 1.6 | 9.7 | 0.00 | 0.00 | 0.00 | 66 | 1013.0 |
| 20260506195405 | 11 | 3 | 1.6 | 6.4 | 0.00 | 0.00 | 0.00 | 65 | 1012.9 |
| 20260506194505 | 12 | 355 | 1.6 | 12.9 | 0.00 | 0.00 | 0.00 | 65 | 1012.9 |
| 20260506193605 | 12 | 17 | 1.6 | 9.7 | 0.00 | 0.00 | 0.00 | 66 | 1012.8 |
| 20260506192703 | 12 | 24 | 1.6 | 8.0 | 0.00 | 0.00 | 0.00 | 66 | 1012.6 |
| 20260506191803 | 12 | 8 | 3.2 | 12.9 | 0.00 | 0.00 | 0.00 | 65 | 1012.6 |
| 20260506190906 | 12 | 12 | 1.6 | 9.7 | 0.00 | 0.00 | 0.00 | 65 | 1012.5 |
| 20260506190004 | 12 | 45 | 1.6 | 6.4 | 0.00 | 0.00 | 0.00 | 65 | 1012.5 |
| 20260506185404 | 12 | 37 | 1.6 | 9.7 | 0.00 | 0.00 | 0.00 | 65 | 1012.4 |
| 20260506184505 | 12 | 90 | 1.6 | 8.0 | 0.00 | 0.00 | 0.00 | 65 | 1012.4 |
| 20260506183603 | 12 | 93 | 3.2 | 11.3 | 0.00 | 0.00 | 0.00 | 64 | 1012.3 |
| 20260506182705 | 12 | 48 | 3.2 | 8.0 | 0.00 | 0.00 | 0.00 | 61 | 1012.1 |
| 20260506181805 | 12 | 7 | 3.2 | 12.9 | 0.00 | 0.00 | 0.00 | 59 | 1012.1 |
| 20260506180903 | 12 | 23 | 3.2 | 11.3 | 0.00 | 0.00 | 0.00 | 60 | 1012.0 |
| 20260506180005 | 12 | 10 | 3.2 | 11.3 | 0.00 | 0.00 | 0.00 | 59 | 1012.0 |
| 20260506175403 | 12 | 41 | 3.2 | 9.7 | 0.00 | 0.00 | 0.00 | 59 | 1011.9 |
| 20260506174503 | 12 | 56 | 3.2 | 12.9 | 0.00 | 0.00 | 0.00 | 59 | 1011.9 |
| 20260506173819 | 12 | 36 | 1.6 | 8.0 | 0.00 | 0.00 | 0.00 | 59 | 1011.8 |
| 20260506172703 | 13 | 26 | 3.2 | 14.5 | 0.00 | 0.00 | 0.00 | 58 | 1011.8 |
| 20260506171808 | 13 | 323 | 1.6 | 8.0 | 0.00 | 0.00 | 0.00 | 59 | 1011.8 |
| 20260506171116 | 13 | 319 | 1.6 | 11.3 | 0.00 | 0.00 | 0.00 | 59 | 1011.8 |
| 20260506170218 | 13 | 23 | 1.6 | 6.4 | 0.00 | 0.00 | 0.00 | 59 | 1011.8 |
| 20260506165403 | 13 | 35 | 3.2 | 8.0 | 0.00 | 0.00 | 0.00 | 58 | 1011.7 |
| 20260506164505 | 13 | 8 | 3.2 | 12.9 | 0.00 | 0.00 | 0.00 | 58 | 1011.7 |
| 20260506163603 | 13 | 13 | 3.2 | 8.0 | 0.00 | 0.00 | 0.00 | 59 | 1011.7 |
| 20260506162705 | 14 | 15 | 3.2 | 12.9 | 0.00 | 0.00 | 0.00 | 58 | 1011.7 |
| 20260506161805 | 14 | 356 | 3.2 | 11.3 | 0.00 | 0.00 | 0.00 | 59 | 1011.7 |
| 20260506160903 | 13 | 1 | 3.2 | 12.9 | 0.00 | 0.00 | 0.00 | 60 | 1011.7 |
| 20260506160005 | 13 | 10 | 3.2 | 8.0 | 0.00 | 0.00 | 0.00 | 61 | 1011.9 |
| 20260506155615 | 13 | 11 | 3.2 | 14.5 | 0.00 | 0.00 | 0.00 | 61 | 1011.9 |
| 20260506154503 | 13 | 36 | 3.2 | 12.9 | 0.00 | 0.00 | 0.00 | 61 | 1011.9 |
| 20260506153603 | 13 | 331 | 3.2 | 14.5 | 0.00 | 0.00 | 0.00 | 62 | 1012.0 |
| 20260506152706 | 13 | 336 | 3.2 | 12.9 | 0.00 | 0.00 | 0.00 | 63 | 1012.0 |
| 20260506151806 | 12 | 350 | 3.2 | 9.7 | 0.00 | 0.00 | 0.00 | 63 | 1012.0 |
| 20260506150904 | 12 | 21 | 3.2 | 12.9 | 0.00 | 0.00 | 0.00 | 65 | 1012.1 |
| 20260506150003 | 12 | 12 | 3.2 | 14.5 | 0.00 | 0.00 | 0.00 | 65 | 1012.0 |
| 20260506145403 | 12 | 21 | 3.2 | 9.7 | 0.00 | 0.00 | 0.00 | 65 | 1012.0 |
| 20260506144505 | 12 | 52 | 3.2 | 12.9 | 0.00 | 0.00 | 0.00 | 64 | 1012.0 |
| 20260506143604 | 12 | 22 | 3.2 | 12.9 | 0.00 | 0.00 | 0.00 | 64 | 1012.0 |
| 20260506142918 | 13 | 13 | 3.2 | 14.5 | 0.00 | 0.00 | 0.00 | 64 | 1012.1 |
| 20260506141805 | 13 | 19 | 4.8 | 14.5 | 0.00 | 0.00 | 0.00 | 61 | 1011.9 |
| 20260506140908 | 14 | 17 | 4.8 | 12.9 | 0.00 | 0.00 | 0.00 | 60 | 1011.8 |
| 20260506140003 | 13 | 1 | 3.2 | 8.0 | 0.00 | 0.00 | 0.00 | 61 | 1011.8 |
| 20260506135617 | 13 | 7 | 3.2 | 8.0 | 0.00 | 0.00 | 0.00 | 60 | 1011.8 |
| 20260506134505 | 13 | 12 | 3.2 | 12.9 | 0.00 | 0.00 | 0.00 | 60 | 1011.9 |
| 20260506133605 | 13 | 359 | 3.2 | 11.3 | 0.00 | 0.00 | 0.00 | 60 | 1011.9 |
| 20260506132705 | 13 | 354 | 3.2 | 12.9 | 0.00 | 0.00 | 0.00 | 61 | 1011.9 |
| 20260506131803 | 14 | 358 | 4.8 | 14.5 | 0.00 | 0.00 | 0.00 | 60 | 1011.9 |
| 20260506130905 | 14 | 5 | 4.8 | 16.1 | 0.00 | 0.00 | 0.00 | 59 | 1011.8 |
| 20260506130003 | 14 | 23 | 4.8 | 19.3 | 0.00 | 0.00 | 0.00 | 56 | 1011.9 |
| 20260506125405 | 14 | 30 | 4.8 | 19.3 | 0.00 | 0.00 | 0.00 | 56 | 1012.0 |
| 20260506124714 | 14 | 23 | 3.2 | 12.9 | 0.00 | 0.00 | 0.00 | 59 | 1012.0 |
| 20260506123603 | 14 | 35 | 3.2 | 12.9 | 0.00 | 0.00 | 0.00 | 59 | 1012.0 |
| 20260506122914 | 13 | 13 | 4.8 | 17.7 | 0.00 | 0.00 | 0.00 | 61 | 1011.9 |
| 20260506122017 | 13 | 350 | 4.8 | 16.1 | 0.00 | 0.00 | 0.00 | 60 | 1012.0 |
| 20260506120905 | 14 | 4 | 4.8 | 16.1 | 0.00 | 0.00 | 0.00 | 60 | 1012.0 |
| 20260506120003 | 13 | 342 | 4.8 | 14.5 | 0.00 | 0.00 | 0.00 | 61 | 1012.0 |
| 20260506115403 | 13 | 346 | 4.8 | 16.1 | 0.00 | 0.00 | 0.00 | 62 | 1012.0 |
| 20260506114504 | 13 | 1 | 4.8 | 14.5 | 0.00 | 0.00 | 0.00 | 60 | 1012.0 |
| 20260506113818 | 14 | 7 | 4.8 | 12.9 | 0.00 | 0.00 | 0.00 | 58 | 1012.0 |
| 20260506112703 | 14 | 345 | 4.8 | 19.3 | 0.00 | 0.00 | 0.00 | 56 | 1012.0 |
| 20260506112017 | 14 | 37 | 4.8 | 14.5 | 0.00 | 0.00 | 0.00 | 58 | 1011.9 |
| 20260506110903 | 13 | 346 | 4.8 | 14.5 | 0.00 | 0.00 | 0.00 | 57 | 1012.0 |
| 20260506110005 | 13 | 4 | 3.2 | 11.3 | 0.00 | 0.00 | 0.00 | 58 | 1012.0 |
| 20260506105403 | 13 | 351 | 3.2 | 11.3 | 0.00 | 0.00 | 0.00 | 60 | 1012.0 |
| 20260506104503 | 13 | 336 | 6.4 | 22.5 | 0.00 | 0.00 | 0.00 | 58 | 1012.0 |
| 20260506103603 | 13 | 34 | 4.8 | 19.3 | 0.00 | 0.00 | 0.00 | 58 | 1011.9 |
| 20260506102916 | 13 | 348 | 4.8 | 19.3 | 0.00 | 0.00 | 0.00 | 57 | 1011.9 |
| 20260506102018 | 13 | 347 | 4.8 | 19.3 | 0.00 | 0.00 | 0.00 | 58 | 1012.0 |
| 20260506100905 | 13 | 3 | 6.4 | 22.5 | 0.00 | 0.00 | 0.00 | 58 | 1012.1 |
| 20260506100004 | 12 | 2 | 6.4 | 19.3 | 0.00 | 0.00 | 0.00 | 59 | 1011.9 |
| 20260506095405 | 12 | 3 | 4.8 | 19.3 | 0.00 | 0.00 | 0.00 | 59 | 1012.2 |
| 20260506094505 | 12 | 333 | 4.8 | 17.7 | 0.00 | 0.00 | 0.00 | 62 | 1012.1 |
| 20260506093608 | 12 | 336 | 6.4 | 16.1 | 0.00 | 0.00 | 0.00 | 60 | 1012.1 |
| 20260506092705 | 12 | 338 | 3.2 | 16.1 | 0.00 | 0.00 | 0.00 | 61 | 1012.1 |
| 20260506091805 | 12 | 357 | 4.8 | 14.5 | 0.00 | 0.00 | 0.00 | 62 | 1011.9 |
| 20260506091116 | 12 | 344 | 6.4 | 16.1 | 0.00 | 0.00 | 0.00 | 61 | 1011.9 |
| 20260506090003 | 12 | 327 | 4.8 | 19.3 | 0.00 | 0.00 | 0.00 | 59 | 1011.9 |
| 20260506085403 | 12 | 358 | 4.8 | 17.7 | 0.00 | 0.00 | 0.00 | 63 | 1011.8 |
| 20260506084717 | 11 | 7 | 3.2 | 16.1 | 0.00 | 0.00 | 0.00 | 65 | 1011.8 |
| 20260506083603 | 11 | 339 | 4.8 | 19.3 | 0.00 | 0.00 | 0.00 | 64 | 1011.8 |
| 20260506082705 | 12 | 349 | 3.2 | 16.1 | 0.00 | 0.00 | 0.00 | 65 | 1011.6 |
| 20260506081805 | 12 | 330 | 3.2 | 19.3 | 0.00 | 0.00 | 0.00 | 66 | 1011.6 |
| 20260506080905 | 11 | 343 | 4.8 | 12.9 | 0.00 | 0.00 | 0.00 | 68 | 1011.7 |
| 20260506080219 | 11 | 339 | 4.8 | 12.9 | 0.00 | 0.00 | 0.00 | 69 | 1011.6 |
| 20260506072704 | 10 | 338 | 3.2 | 9.7 | 0.00 | 0.00 | 0.00 | 76 | 1011.9 |
| 20260506071805 | 9 | 2 | 1.6 | 8.0 | 0.00 | 0.00 | 0.00 | 76 | 1011.9 |
| 20260506070903 | 9 | 9 | 1.6 | 16.1 | 0.00 | 0.00 | 0.00 | 77 | 1011.9 |
| 20260506061803 | 10 | 322 | 3.2 | 14.5 | 0.00 | 0.00 | 0.00 | 74 | 1011.7 |
| 20260506060903 | 9 | 329 | 1.6 | 12.9 | 0.00 | 0.00 | 0.00 | 76 | 1011.6 |
| 20260506050905 | 8 | 3 | 1.6 | 8.0 | 0.00 | 0.00 | 0.00 | 80 | 1011.4 |
| 20260506044503 | 8 | 1 | 1.6 | 12.9 | 0.00 | 0.00 | 0.00 | 79 | 1011.2 |
| 20260506043606 | 8 | 358 | 1.6 | 12.9 | 0.00 | 0.00 | 0.00 | 79 | 1011.3 |
| 20260506042914 | 8 | 358 | 1.6 | 12.9 | 0.00 | 0.00 | 0.00 | 79 | 1011.3 |
| 20260506041805 | 8 | 10 | 1.6 | 9.7 | 0.00 | 0.00 | 0.00 | 79 | 1011.2 |
| 20260506040903 | 8 | 17 | 1.6 | 4.8 | 0.00 | 0.00 | 0.00 | 79 | 1011.0 |
| 20260506040003 | 8 | 23 | 3.2 | 9.7 | 0.00 | 0.00 | 0.00 | 78 | 1011.0 |
| 20260506035403 | 8 | 1 | 1.6 | 6.4 | 0.00 | 0.00 | 0.00 | 77 | 1011.0 |
| 20260506034505 | 9 | 356 | 1.6 | 8.0 | 0.00 | 0.00 | 0.00 | 76 | 1011.0 |
| 20260506033603 | 9 | 29 | 1.6 | 9.7 | 0.00 | 0.00 | 0.00 | 75 | 1011.0 |
| 20260506032915 | 9 | 41 | 1.6 | 9.7 | 0.00 | 0.00 | 0.00 | 75 | 1011.1 |
| 20260506032017 | 9 | 6 | 3.2 | 12.9 | 0.00 | 0.00 | 0.00 | 75 | 1011.0 |
| 20260506030908 | 9 | 4 | 3.2 | 12.9 | 0.00 | 0.00 | 0.00 | 77 | 1011.0 |
| 20260506030005 | 10 | 13 | 3.2 | 12.9 | 0.00 | 0.00 | 0.00 | 78 | 1011.0 |
| 20260506025403 | 10 | 18 | 1.6 | 9.7 | 0.00 | 0.00 | 0.00 | 78 | 1011.0 |
| 20260506024504 | 10 | 60 | 1.6 | 6.4 | 0.00 | 0.00 | 0.00 | 78 | 1011.1 |
| 20260506023605 | 10 | 22 | 3.2 | 11.3 | 0.00 | 0.00 | 0.00 | 78 | 1011.2 |
| 20260506022705 | 10 | 358 | 3.2 | 11.3 | 0.00 | 0.00 | 0.00 | 79 | 1011.3 |
| 20260506021804 | 10 | 7 | 3.2 | 12.9 | 0.00 | 0.00 | 0.00 | 79 | 1011.3 |
| 20260506020905 | 10 | 29 | 3.2 | 12.9 | 0.00 | 0.00 | 0.00 | 78 | 1011.3 |
| 20260506020006 | 10 | 8 | 1.6 | 4.8 | 0.00 | 0.00 | 0.00 | 78 | 1011.4 |